DW2363 Weather Reports


Display with metric or nautical units.
time (UTC)temp
F
wind
direction
speed
MPH
gust
MPH
rain 1hr
in
rain 24hr
in
rain mn
in
humidity
%
barometer
mb
20260510233831 73 207 6.0 9.0 0.00 0.00 0.00 44 1013.9
20260510233327 73 219 7.0 9.0 0.00 0.00 0.00 43 1013.8
20260510232827 73 221 6.0 9.0 0.00 0.00 0.00 40 1013.8
20260510232329 74 227 6.0 9.0 0.00 0.00 0.00 38 1013.9
20260510231826 74 243 6.0 9.0 0.00 0.00 0.00 42 1013.9
20260510231326 74 219 5.0 8.0 0.00 0.00 0.00 45 1013.9
20260510230825 74 228 5.0 8.0 0.00 0.00 0.00 45 1013.9
20260510230326 74 226 5.0 11.0 0.00 0.00 0.00 46 1013.8
20260510225826 74 213 4.0 11.0 0.00 0.00 0.00 56 1013.8
20260510225325 75 211 3.0 6.0 0.00 0.00 0.00 59 1013.8
20260510224825 75 184 3.0 6.0 0.00 0.00 0.00 61 1013.8
20260510224325 75 189 3.0 6.0 0.00 0.00 0.00 59 1013.8
20260510223825 75 204 4.0 6.0 0.00 0.00 0.00 58 1013.8
20260510223325 75 187 4.0 6.0 0.00 0.00 0.00 58 1013.8
20260510222825 75 214 4.0 7.0 0.00 0.00 0.00 57 1013.8
20260510222326 74 223 5.0 8.0 0.00 0.00 0.00 54 1013.8
20260510221826 74 238 5.0 8.0 0.00 0.00 0.00 54 1013.8
20260510221326 74 221 5.0 8.0 0.00 0.00 0.00 50 1013.9
20260510220825 74 200 5.0 8.0 0.00 0.00 0.00 47 1013.9
20260510220326 74 209 5.0 7.0 0.00 0.00 0.00 52 1013.9
20260510215825 74 223 5.0 9.0 0.00 0.00 0.00 49 1013.9
20260510215325 74 221 5.0 9.0 0.00 0.00 0.00 45 1013.9
20260510214823 74 207 4.0 9.0 0.00 0.00 0.00 45 1014.0
20260510214323 74 218 5.0 9.0 0.00 0.00 0.00 46 1013.9
20260510213823 75 227 4.0 8.0 0.00 0.00 0.00 45 1014.0
20260510213327 75 240 3.0 6.0 0.00 0.00 0.00 45 1014.1
20260510213323 75 253 3.0 7.0 0.00 0.00 0.00 44 1014.0
20260510212323 75 217 4.0 7.0 0.00 0.00 0.00 46 1014.1
20260510211827 76 219 3.0 5.0 0.00 0.00 0.00 44 1014.1
20260510211823 75 219 3.0 7.0 0.00 0.00 0.00 45 1014.1
20260510210823 77 221 2.0 5.0 0.00 0.00 0.00 45 1014.1
20260510210323 77 227 2.0 13.0 0.00 0.00 0.00 46 1014.2
20260510205823 78 166 2.0 13.0 0.00 0.00 0.00 49 1014.1
20260510205323 77 211 3.0 13.0 0.00 0.00 0.00 43 1014.2
20260510204824 76 268 3.0 13.0 0.00 0.00 0.00 59 1014.1
20260510204323 76 129 2.0 5.0 0.00 0.00 0.00 58 1014.1
20260510203823 76 121 2.0 7.0 0.00 0.00 0.00 58 1014.1
20260510203324 75 187 2.0 7.0 0.00 0.00 0.00 60 1014.1
20260510202823 75 140 1.0 5.0 0.00 0.00 0.00 60 1014.1
20260510202327 76 154 1.0 5.0 0.00 0.00 0.00 57 1014.1
20260510202323 75 159 2.0 5.0 0.00 0.00 0.00 60 1014.1
20260510201323 76 184 1.0 4.0 0.00 0.00 0.00 60 1014.1
20260510200823 76 138 2.0 5.0 0.00 0.00 0.00 63 1014.1
20260510200323 76 132 2.0 5.0 0.00 0.00 0.00 61 1014.1
20260510195826 76 147 2.0 5.0 0.00 0.00 0.00 61 1014.0
20260510195822 75 143 2.0 5.0 0.00 0.00 0.00 63 1014.1
20260510194821 75 153 2.0 5.0 0.00 0.00 0.00 63 1014.1
20260510194326 74 123 2.0 6.0 0.00 0.00 0.00 64 1014.2
20260510194322 74 153 2.0 6.0 0.00 0.00 0.00 63 1014.2
20260510193321 74 170 3.0 6.0 0.00 0.00 0.00 64 1014.2
20260510192821 74 170 3.0 6.0 0.00 0.00 0.00 66 1014.2
20260510192322 74 156 2.0 5.0 0.00 0.00 0.00 64 1014.2
20260510191821 74 137 2.0 4.0 0.00 0.00 0.00 66 1014.2
20260510191324 73 139 3.0 7.0 0.00 0.00 0.00 67 1014.2
20260510191320 73 128 3.0 7.0 0.00 0.00 0.00 67 1014.2
20260510190321 73 140 3.0 7.0 0.00 0.00 0.00 66 1014.2
20260510185820 74 132 3.0 7.0 0.00 0.00 0.00 64 1014.2
20260510185319 75 110 2.0 7.0 0.00 0.00 0.00 62 1014.2
20260510184819 75 207 2.0 7.0 0.00 0.00 0.00 62 1014.2
20260510184319 75 194 2.0 7.0 0.00 0.00 0.00 59 1014.2
20260510183819 75 134 2.0 6.0 0.00 0.00 0.00 58 1014.1
20260510183319 75 178 2.0 6.0 0.00 0.00 0.00 60 1014.1
20260510182819 76 167 2.0 4.0 0.00 0.00 0.00 59 1014.2
20260510182318 76 144 2.0 6.0 0.00 0.00 0.00 61 1014.2
20260510181823 76 121 1.0 6.0 0.00 0.00 0.00 58 1014.2
20260510181819 76 162 2.0 6.0 0.00 0.00 0.00 58 1014.1
20260510180821 77 155 1.0 4.0 0.00 0.00 0.00 57 1014.2
20260510180817 77 165 1.0 6.0 0.00 0.00 0.00 59 1014.1
20260510180423 77 148 1.0 4.0 0.00 0.00 0.00 59 1014.1
20260510175315 77 121 0.0 3.0 0.00 0.00 0.00 57 1014.0
20260510174815 76 126 0.0 3.0 0.00 0.00 0.00 59 1014.0
20260510174319 74 103 1.0 5.0 0.00 0.00 0.00 65 1014.0
20260510174315 76 148 1.0 4.0 0.00 0.00 0.00 60 1014.1
20260510173922 73 61 2.0 5.0 0.00 0.00 0.00 67 1013.9
20260510173424 73 345 2.0 5.0 0.00 0.00 0.00 68 1013.8
20260510172315 73 355 2.0 5.0 0.00 0.00 0.00 66 1013.8
20260510171815 73 348 1.0 4.0 0.00 0.00 0.00 66 1013.8
20260510171315 73 34 1.0 3.0 0.00 0.00 0.00 65 1013.8
20260510170815 73 337 1.0 5.0 0.00 0.00 0.00 63 1013.7
20260510170312 74 12 2.0 5.0 0.00 0.00 0.00 61 1013.7
20260510165811 74 17 1.0 3.0 0.00 0.00 0.00 60 1013.7
20260510165311 74 46 1.0 3.0 0.00 0.00 0.00 60 1013.6
20260510164812 74 120 1.0 3.0 0.00 0.00 0.00 63 1013.6
20260510164311 73 76 1.0 3.0 0.00 0.00 0.00 54 1013.6
20260510163814 73 0 2.0 5.0 0.00 0.00 0.00 60 1013.6
20260510163810 73 18 1.0 3.0 0.00 0.00 0.00 57 1013.6
20260510163419 72 355 2.0 5.0 0.00 0.00 0.00 57 1013.5
20260510162309 73 42 2.0 4.0 0.00 0.00 0.00 56 1013.5
20260510161808 72 355 2.0 5.0 0.00 0.00 0.00 55 1013.5
20260510161308 72 9 3.0 5.0 0.00 0.00 0.00 56 1013.4
20260510160809 71 11 4.0 5.0 0.00 0.00 0.00 55 1013.2
20260510160307 72 351 4.0 7.0 0.00 0.00 0.00 54 1013.1
20260510155808 72 13 4.0 7.0 0.00 0.00 0.00 53 1013.2
20260510155308 71 5 4.0 7.0 0.00 0.00 0.00 52 1013.2
20260510154808 71 26 4.0 7.0 0.00 0.00 0.00 54 1013.2
20260510154307 71 10 4.0 7.0 0.00 0.00 0.00 55 1013.2
20260510153807 71 5 5.0 7.0 0.00 0.00 0.00 56 1013.4
20260510153315 71 9 4.0 6.0 0.00 0.00 0.00 56 1013.2
20260510153309 71 5 4.0 7.0 0.00 0.00 0.00 57 1013.2
20260510152308 71 355 4.0 6.0 0.00 0.00 0.00 57 1013.1
20260510151807 71 348 4.0 6.0 0.00 0.00 0.00 56 1013.1
20260510151308 71 351 4.0 6.0 0.00 0.00 0.00 57 1013.1
20260510150807 71 344 5.0 8.0 0.00 0.00 0.00 54 1013.2
20260510150307 70 349 6.0 8.0 0.00 0.00 0.00 54 1013.2
20260510145807 70 355 6.0 8.0 0.00 0.00 0.00 53 1013.1
20260510145311 70 341 6.0 8.0 0.00 0.00 0.00 51 1013.0
20260510145306 70 338 6.0 8.0 0.00 0.00 0.00 55 1013.0
20260510144305 70 339 5.0 6.0 0.00 0.00 0.00 55 1013.0
20260510143804 70 339 5.0 6.0 0.00 0.00 0.00 59 1013.0
20260510143304 70 340 5.0 8.0 0.00 0.00 0.00 59 1013.0
20260510142804 70 333 4.0 8.0 0.00 0.00 0.00 58 1012.9
20260510142308 69 346 3.0 5.0 0.00 0.00 0.00 63 1012.9
20260510142306 69 336 3.0 6.0 0.00 0.00 0.00 60 1012.8
20260510141302 69 336 4.0 6.0 0.00 0.00 0.00 62 1012.9
20260510140802 68 336 4.0 6.0 0.00 0.00 0.00 64 1012.8
20260510140301 68 333 5.0 8.0 0.00 0.00 0.00 63 1012.8
20260510135800 67 327 5.0 8.0 0.00 0.00 0.00 65 1012.8
20260510135300 67 331 5.0 8.0 0.00 0.00 0.00 65 1012.7
20260510134800 67 334 5.0 8.0 0.00 0.00 0.00 65 1012.6
20260510134300 67 331 5.0 8.0 0.00 0.00 0.00 64 1012.6
20260510133800 67 330 5.0 6.0 0.00 0.00 0.00 66 1012.6
20260510133304 66 338 6.0 8.0 0.00 0.00 0.00 68 1012.6
20260510133300 66 343 5.0 8.0 0.00 0.00 0.00 66 1012.6
20260510132300 65 332 7.0 8.0 0.00 0.00 0.00 70 1012.5
20260510131800 65 338 7.0 8.0 0.00 0.00 0.00 70 1012.5
20260510131258 65 342 7.0 9.0 0.00 0.00 0.00 69 1012.5
20260510130758 65 339 7.0 9.0 0.00 0.00 0.00 70 1012.6
20260510130258 65 355 6.0 9.0 0.00 0.00 0.00 68 1012.6
20260510125758 66 350 5.0 8.0 0.00 0.00 0.00 66 1012.5
20260510125306 68 355 5.0 6.0 0.00 0.00 0.00 61 1012.4
20260510125258 67 344 5.0 6.0 0.00 0.00 0.00 65 1012.4
20260510124906 68 5 5.0 7.0 0.00 0.00 0.00 60 1012.5
20260510124259 68 5 5.0 6.0 0.00 0.00 0.00 60 1012.4
20260510123258 68 5 5.0 7.0 0.00 0.00 0.00 59 1012.5
20260510122758 68 18 5.0 7.0 0.00 0.00 0.00 59 1012.5
20260510122258 68 18 6.0 7.0 0.00 0.00 0.00 58 1012.5
20260510121758 68 18 6.0 7.0 0.00 0.00 0.00 58 1012.5
20260510121258 68 18 5.0 7.0 0.00 0.00 0.00 59 1012.5
20260510120758 68 18 5.0 7.0 0.00 0.00 0.00 59 1012.5
20260510120258 67 18 5.0 7.0 0.00 0.00 0.00 59 1012.6
20260510115758 67 18 5.0 7.0 0.00 0.00 0.00 61 1012.5
20260510115258 66 25 5.0 7.0 0.00 0.00 0.00 62 1012.4
20260510114758 64 21 6.0 8.0 0.00 0.00 0.00 68 1012.5
20260510114258 64 11 6.0 8.0 0.00 0.00 0.00 71 1012.4
20260510113757 64 5 7.0 8.0 0.00 0.00 0.00 71 1012.5
20260510113258 64 5 7.0 8.0 0.00 0.00 0.00 70 1012.4
20260510112758 65 11 6.0 8.0 0.00 0.00 0.00 70 1012.4
20260510112258 65 5 7.0 8.0 0.00 0.00 0.00 69 1012.3
20260510111758 65 20 8.0 8.0 0.00 0.00 0.00 70 1012.3
20260510111256 64 20 7.0 8.0 0.00 0.00 0.00 71 1012.3
20260510110756 63 26 7.0 9.0 0.00 0.00 0.00 73 1012.3
20260510110256 63 26 8.0 9.0 0.00 0.00 0.00 69 1012.3
20260510105756 64 28 6.0 9.0 0.00 0.00 0.00 68 1012.2
20260510105257 65 42 5.0 7.0 0.00 0.00 0.00 70 1012.3
20260510104755 65 31 5.0 7.0 0.00 0.00 0.00 69 1012.3
20260510104256 65 12 4.0 7.0 0.00 0.00 0.00 71 1012.4
20260510103756 66 12 3.0 5.0 0.00 0.00 0.00 67 1012.3
20260510103300 67 14 4.0 7.0 0.00 0.00 0.00 69 1012.3
20260510103256 67 22 3.0 5.0 0.00 0.00 0.00 68 1012.3
20260510102256 67 14 4.0 7.0 0.00 0.00 0.00 67 1012.3
20260510101754 68 14 5.0 6.0 0.00 0.00 0.00 66 1012.3
20260510101251 68 14 5.0 6.0 0.00 0.00 0.00 63 1012.3
20260510100751 68 30 5.0 6.0 0.00 0.00 0.00 60 1012.3
20260510100252 68 36 4.0 6.0 0.00 0.00 0.00 61 1012.3
20260510095752 67 57 3.0 5.0 0.00 0.00 0.00 62 1012.4
20260510095251 67 82 2.0 3.0 0.00 0.00 0.00 65 1012.5
20260510094748 66 82 2.0 3.0 0.00 0.00 0.00 68 1012.5
20260510094254 66 82 1.0 4.0 0.00 0.00 0.00 69 1012.5
20260510094248 66 82 1.0 3.0 0.00 0.00 0.00 68 1012.5
20260510093248 66 82 2.0 4.0 0.00 0.00 0.00 69 1012.5
20260510092748 66 82 2.0 4.0 0.00 0.00 0.00 67 1012.5
20260510092247 67 82 3.0 4.0 0.00 0.00 0.00 64 1012.5
20260510091753 67 82 3.0 5.0 0.00 0.00 0.00 62 1012.5
20260510091747 67 82 3.0 5.0 0.00 0.00 0.00 65 1012.5
20260510090747 67 82 4.0 7.0 0.00 0.00 0.00 59 1012.6
20260510090253 67 72 5.0 7.0 0.00 0.00 0.00 59 1012.5
20260510090247 67 81 5.0 7.0 0.00 0.00 0.00 56 1012.5
20260510085855 67 68 5.0 7.0 0.00 0.00 0.00 62 1012.5
20260510085354 67 78 4.0 7.0 0.00 0.00 0.00 61 1012.5
20260510084253 67 89 3.0 6.0 0.00 0.00 0.00 57 1012.5
20260510084248 67 63 4.0 7.0 0.00 0.00 0.00 61 1012.5
20260510083248 67 85 4.0 6.0 0.00 0.00 0.00 60 1012.6
20260510082747 67 59 4.0 7.0 0.00 0.00 0.00 63 1012.6
20260510082247 67 61 4.0 7.0 0.00 0.00 0.00 57 1012.7
20260510081753 67 74 5.0 7.0 0.00 0.00 0.00 59 1012.8
20260510081747 67 84 5.0 7.0 0.00 0.00 0.00 59 1012.7
20260510080751 67 64 5.0 6.0 0.00 0.00 0.00 59 1012.8
20260510080745 67 80 5.0 7.0 0.00 0.00 0.00 61 1012.8
20260510075746 67 69 5.0 6.0 0.00 0.00 0.00 60 1012.9
20260510075243 66 55 5.0 6.0 0.00 0.00 0.00 60 1013.0
20260510074743 66 41 5.0 6.0 0.00 0.00 0.00 63 1013.0
20260510074241 66 61 4.0 7.0 0.00 0.00 0.00 62 1013.0
20260510073741 66 317 4.0 7.0 0.00 0.00 0.00 63 1013.0
20260510073241 66 10 5.0 7.0 0.00 0.00 0.00 66 1013.2
20260510072740 66 24 5.0 6.0 0.00 0.00 0.00 65 1013.2
20260510072241 66 31 5.0 6.0 0.00 0.00 0.00 67 1013.2
20260510071742 66 46 5.0 6.0 0.00 0.00 0.00 64 1013.1
20260510071242 66 51 5.0 7.0 0.00 0.00 0.00 66 1013.1
20260510070741 66 49 5.0 7.0 0.00 0.00 0.00 67 1013.2
20260510070240 66 49 5.0 7.0 0.00 0.00 0.00 71 1013.2
20260510065739 66 53 5.0 6.0 0.00 0.00 0.00 70 1013.2
20260510065239 66 50 6.0 8.0 0.00 0.00 0.00 70 1013.2
20260510064739 66 41 6.0 8.0 0.00 0.00 0.00 69 1013.4
20260510064239 66 43 6.0 7.0 0.00 0.00 0.00 73 1013.2
20260510063739 66 43 6.0 7.0 0.00 0.00 0.00 72 1013.2
20260510063243 66 43 6.0 7.0 0.00 0.00 0.00 72 1013.2
20260510063239 66 43 6.0 7.0 0.00 0.00 0.00 72 1013.2
20260510062237 66 43 6.0 7.0 0.00 0.00 0.00 72 1013.2
20260510061735 66 43 6.0 7.0 0.00 0.00 0.00 72 1013.2
20260510061235 66 43 6.0 7.0 0.00 0.00 0.00 73 1013.2
20260510060735 66 43 5.0 6.0 0.00 0.00 0.00 73 1013.2
20260510060232 66 43 4.0 6.0 0.00 0.00 0.00 74 1013.2
20260510055737 65 28 4.0 5.0 0.00 0.00 0.00 73 1013.4
20260510055732 65 28 4.0 5.0 0.00 0.00 0.00 72 1013.4
20260510054732 65 28 4.0 5.0 0.00 0.00 0.00 73 1013.4
20260510054235 66 28 4.0 5.0 0.00 0.00 0.00 73 1013.4
20260510054231 66 28 3.0 5.0 0.00 0.00 0.00 73 1013.4
20260510053231 66 28 3.0 5.0 0.00 0.00 0.00 73 1013.5
20260510052730 66 28 3.0 4.0 0.00 0.00 0.00 72 1013.5
20260510052231 66 28 3.0 4.0 0.00 0.00 0.00 72 1013.5
20260510051731 67 28 3.0 5.0 0.00 0.00 0.00 73 1013.5
20260510051229 67 28 3.0 5.0 0.00 0.00 0.00 73 1013.5
20260510050729 66 28 4.0 5.0 0.00 0.00 0.00 72 1013.5
20260510050228 66 28 4.0 5.0 0.00 0.00 0.00 72 1013.5
20260510045728 67 40 3.0 5.0 0.00 0.00 0.00 72 1013.5
20260510045230 67 40 3.0 5.0 0.00 0.00 0.00 73 1013.5
20260510044731 67 40 4.0 5.0 0.00 0.00 0.00 72 1013.4
20260510044727 67 40 4.0 6.0 0.00 0.00 0.00 72 1013.4
20260510044334 67 40 4.0 6.0 0.00 0.00 0.00 72 1013.4
20260510043834 67 47 3.0 5.0 0.00 0.00 0.00 71 1013.4
20260510043334 68 47 2.0 3.0 0.00 0.00 0.00 71 1013.2
20260510042227 68 70 3.0 5.0 0.00 0.00 0.00 70 1013.4
20260510041727 69 70 4.0 5.0 0.00 0.00 0.00 70 1013.2
20260510041226 69 70 3.0 5.0 0.00 0.00 0.00 70 1013.0
20260510040726 69 61 3.0 5.0 0.00 0.00 0.00 70 1013.0
20260510040226 69 76 2.0 5.0 0.00 0.00 0.00 69 1013.0
20260510035726 69 100 3.0 5.0 0.00 0.00 0.00 69 1013.0
20260510035226 69 69 3.0 5.0 0.00 0.00 0.00 69 1012.9
20260510034726 69 72 3.0 6.0 0.00 0.00 0.00 69 1012.9
20260510034228 69 84 3.0 6.0 0.00 0.00 0.00 68 1013.0
20260510033726 69 86 4.0 7.0 0.00 0.00 0.00 69 1012.9
20260510033226 69 61 5.0 8.0 0.00 0.00 0.00 69 1012.8
20260510032732 69 73 3.0 7.0 0.00 0.00 0.00 69 1012.7
20260510032726 69 73 5.0 8.0 0.00 0.00 0.00 69 1012.8
20260510031726 69 62 4.0 7.0 0.00 0.00 0.00 68 1012.6
20260510031226 70 69 5.0 7.0 0.00 0.00 0.00 68 1012.5
20260510030726 70 78 3.0 5.0 0.00 0.00 0.00 68 1012.5
20260510030226 70 78 3.0 5.0 0.00 0.00 0.00 68 1012.4
20260510025729 70 78 3.0 5.0 0.00 0.00 0.00 68 1012.3
20260510025725 70 75 2.0 5.0 0.00 0.00 0.00 67 1012.3
20260510024724 70 48 2.0 4.0 0.00 0.00 0.00 67 1012.2
20260510024225 71 69 2.0 4.0 0.00 0.00 0.00 66 1012.2
20260510023724 71 69 2.0 4.0 0.00 0.00 0.00 66 1012.3
20260510023222 72 69 2.0 4.0 0.00 0.00 0.00 65 1012.2
20260510022720 72 5 2.0 3.0 0.00 0.00 0.00 65 1012.3
20260510022220 72 241 1.0 3.0 0.00 0.00 0.00 64 1012.2
20260510021724 73 229 0.0 1.0 0.00 0.00 0.00 64 1012.2
20260510021720 73 229 0.0 1.0 0.00 0.00 0.00 64 1012.3
20260510020724 73 229 0.0 4.0 0.00 0.00 0.00 64 1012.2
20260510020720 73 229 0.0 1.0 0.00 0.00 0.00 64 1012.2
20260510015725 73 225 1.0 4.0 0.00 0.00 0.00 63 1012.2
20260510015720 73 229 1.0 4.0 0.00 0.00 0.00 62 1012.2
20260510014720 73 261 1.0 4.0 0.00 0.00 0.00 63 1012.2
20260510014224 72 228 2.0 3.0 0.00 0.00 0.00 63 1012.2
20260510014220 73 228 1.0 3.0 0.00 0.00 0.00 62 1012.2
20260510013217 72 242 2.0 4.0 0.00 0.00 0.00 63 1012.2
20260510012719 72 227 3.0 5.0 0.00 0.00 0.00 63 1012.1
20260510012218 72 200 3.0 5.0 0.00 0.00 0.00 63 1012.1
20260510011718 72 223 3.0 5.0 0.00 0.00 0.00 63 1012.1
20260510011217 72 198 3.0 7.0 0.00 0.00 0.00 64 1012.1
20260510010722 73 214 3.0 7.0 0.00 0.00 0.00 64 1012.1
20260510010718 72 200 3.0 7.0 0.00 0.00 0.00 64 1012.1
20260510005718 72 204 3.0 7.0 0.00 0.00 0.00 64 1012.1
20260510005222 72 225 4.0 8.0 0.00 0.00 0.00 65 1012.1
20260510005217 72 212 4.0 8.0 0.00 0.00 0.00 65 1012.1
20260510004216 72 219 4.0 7.0 0.00 0.00 0.00 66 1012.1
20260510003716 71 205 5.0 8.0 0.00 0.00 0.00 65 1012.1
20260510003216 71 221 5.0 8.0 0.00 0.00 0.00 65 1012.1
20260510002716 71 237 5.0 7.0 0.00 0.00 0.00 66 1012.2
20260510002216 71 246 5.0 8.0 0.00 0.00 0.00 65 1012.1
20260510001716 71 229 5.0 8.0 0.00 0.00 0.00 66 1012.2
20260510001216 71 234 5.0 8.0 0.00 0.00 0.00 65 1012.1
20260510000716 71 236 5.0 7.0 0.00 0.00 0.00 64 1012.1
20260510000216 71 219 5.0 7.0 0.00 0.00 0.00 65 1012.1
20260509235716 72 246 5.0 8.0 0.00 0.00 0.00 64 1012.2
20260509235220 72 232 5.0 8.0 0.00 0.00 0.00 64 1012.2
20260509235216 71 244 5.0 8.0 0.00 0.00 0.00 64 1012.3